Weather History for KLOR - January, 2013

Change the Weather History Date:

Tuesday, January 22, 2013

  Actual Average (KDHN) Record (KDHN)
Temperature  
Mean Temperature 45 °F 49 °F  
Max Temperature 57 °F 60 °F 77 °F (1949)
Min Temperature 33 °F 38 °F 17 °F (1961)
Degree Days  
Heating Degree Days 20 16  
Month to date heating degree days 363  
Since 1 July heating degree days 1076  
Moisture  
Dew Point 26 °F    
Average Humidity 55    
Maximum Humidity 89    
Minimum Humidity 24    
Precipitation  
Precipitation 0.00 in 0.15 in 1.51 in (1956)
Month to date precipitation 2.92  
Year to date precipitation 2.92  
Sea Level Pressure  
Sea Level Pressure 30.29 in    
Wind  
Wind Speed 3 mph (North)    
Max Wind Speed 8 mph    
Max Gust Speed -    
Visibility 10 miles    
Events      
T = Trace of Precipitation, MM = Missing Value Source: NWS Daily Summary

Daily Weather History Graph

Daily Weather History Graph

Search for Another Location

Airport or City:

Trip Planner

Search our weather history database for the weather conditions in past years. The results will help you decide how hot, cold, wet, or windy it might be!

Date:

Astronomy

Jan. 22, 2013 Rise Set
Actual Time 6:40 AM CST 5:09 PM CST
Civil Twilight 6:14 AM CST 5:35 PM CST
Nautical Twilight 5:45 AM CST 6:04 PM CST
Astronomical Twilight 5:16 AM CST 6:33 PM CST
Moon 1:34 PM CST (1/22) 2:59 AM CST (1/22)
Length of Visible Light 11h 20m
Length of Day
10h 28m
Waxing Gibbous, 83% of the Moon is Illuminated
Jan 22
Waxing Gibbous
Jan 26
Full
Feb 3
Last Quarter
Feb 10
New
Feb 17
First Quarter

Hourly Weather History & Observations

Time (CST) Temp. Windchill Dew Point Humidity Pressure Visibility Wind Dir Wind Speed Gust Speed Precip Events Conditions
12:53 AM 45.0 °F 43.5 °F 30.0 °F 56% 30.19 in 10.0 mi North 3.5 mph - N/A   Clear
1:53 AM 43.0 °F 40.3 °F 30.0 °F 60% 30.20 in 10.0 mi NNE 4.6 mph - N/A   Clear
2:53 AM 42.1 °F 39.2 °F 28.0 °F 58% 30.21 in 10.0 mi North 4.6 mph - N/A   Clear
3:53 AM 39.0 °F 36.8 °F 28.0 °F 65% 30.22 in 10.0 mi North 3.5 mph - N/A   Clear
4:53 AM 37.9 °F 35.5 °F 26.1 °F 62% 30.24 in - NNE 3.5 mph - N/A   Clear
5:53 AM 35.1 °F - 27.0 °F 72% 30.28 in - Calm Calm - N/A   Clear
6:53 AM 33.1 °F - 27.0 °F 78% 30.29 in - Calm Calm - N/A   Clear
7:53 AM 37.9 °F - 28.9 °F 70% 30.32 in - Calm Calm - N/A   Clear
8:53 AM 44.1 °F 40.1 °F 24.1 °F 45% 30.34 in - North 6.9 mph - N/A   Clear
9:53 AM 46.9 °F - 19.9 °F 34% 30.35 in 10.0 mi North 8.1 mph - N/A   Clear
10:53 AM 51.1 °F - 21.9 °F 32% 30.34 in 10.0 mi North 6.9 mph - N/A   Clear
11:53 AM 54.0 °F - 21.0 °F 28% 30.32 in 10.0 mi Variable 3.5 mph - N/A   Clear
12:53 PM 55.9 °F - 21.0 °F 26% 30.29 in 10.0 mi NNW 5.8 mph - N/A   Clear
1:53 PM 57.0 °F - 19.9 °F 24% 30.27 in 10.0 mi Variable 5.8 mph - N/A   Clear
2:53 PM 57.9 °F - 21.0 °F 24% 30.27 in - North 8.1 mph - N/A   Clear
3:53 PM 57.0 °F - 21.9 °F 26% 30.28 in 10.0 mi North 8.1 mph - N/A   Clear
4:53 PM 54.0 °F - 24.1 °F 31% 30.29 in 10.0 mi Calm Calm - N/A   Clear
5:53 PM 48.9 °F - 25.0 °F 39% 30.30 in 10.0 mi North 3.5 mph - N/A   Clear
6:53 PM 41.0 °F - 30.9 °F 67% 30.30 in 10.0 mi Calm Calm - N/A   Clear
7:53 PM 39.0 °F - 32.0 °F 76% 30.31 in 10.0 mi Calm Calm - N/A   Clear
8:53 PM 36.0 °F - 30.9 °F 82% 30.33 in 10.0 mi Calm Calm - N/A   Clear
9:53 PM 35.1 °F - 30.0 °F 82% 30.35 in 10.0 mi Calm Calm - N/A   Clear
10:53 PM 33.1 °F - 30.0 °F 89% 30.34 in 10.0 mi Calm Calm - N/A   Clear
11:53 PM 33.1 °F - 30.0 °F 89% 30.34 in 10.0 mi Calm Calm - N/A   Clear